TimeMST,TemperatureF,Dew PointF,Humidity,Sea Level PressureIn,VisibilityMPH,Wind Direction,Wind SpeedMPH,Gust SpeedMPH,PrecipitationIn,Events,Conditions,WindDirDegrees,DateUTC
12:48 AM,6.1,-2.0,69,30.53,-9999.0,Calm,Calm,-,N/A,,Unknown,0,2013-01-21 07:48:00
1:48 AM,6.1,-2.0,69,30.52,-9999.0,Calm,Calm,-,N/A,,Unknown,0,2013-01-21 08:48:00
2:48 AM,6.1,-0.0,76,30.51,-9999.0,East,3.5,-,N/A,,Unknown,90,2013-01-21 09:48:00
3:48 AM,5.0,1.0,84,30.50,-9999.0,Calm,Calm,-,N/A,,Unknown,0,2013-01-21 10:48:00
4:48 AM,5.0,-0.0,80,30.49,-9999.0,East,4.6,-,N/A,,Unknown,100,2013-01-21 11:48:00
5:48 AM,5.0,1.0,84,30.49,-9999.0,East,4.6,-,N/A,,Unknown,90,2013-01-21 12:48:00
6:48 AM,5.0,1.0,84,30.45,-9999.0,ESE,4.6,-,0.01,,Unknown,110,2013-01-21 13:48:00
7:48 AM,6.1,1.9,83,30.44,-9999.0,ESE,3.5,-,N/A,,Unknown,120,2013-01-21 14:48:00
8:48 AM,7.0,3.0,84,30.44,-9999.0,East,5.8,-,N/A,,Unknown,80,2013-01-21 15:48:00
9:48 AM,8.1,3.0,80,30.44,-9999.0,East,6.9,-,N/A,,Unknown,90,2013-01-21 16:48:00
10:48 AM,9.0,3.9,80,30.42,-9999.0,ESE,5.8,-,N/A,,Unknown,110,2013-01-21 17:48:00
11:48 AM,10.9,5.0,77,30.39,-9999.0,SSE,8.1,-,N/A,,Unknown,150,2013-01-21 18:48:00
12:48 PM,12.0,5.0,73,30.34,-9999.0,SE,8.1,-,N/A,,Unknown,140,2013-01-21 19:48:00
1:48 PM,14.0,7.0,74,30.31,-9999.0,SE,5.8,-,N/A,,Unknown,140,2013-01-21 20:48:00
2:48 PM,15.1,8.1,74,30.30,-9999.0,ESE,5.8,-,N/A,,Unknown,110,2013-01-21 21:48:00
3:48 PM,14.0,7.0,74,30.28,-9999.0,ESE,6.9,-,N/A,,Unknown,110,2013-01-21 22:48:00
4:48 PM,14.0,8.1,77,30.26,-9999.0,East,8.1,-,N/A,,Unknown,100,2013-01-21 23:48:00
5:48 PM,12.9,7.0,77,30.26,-9999.0,ESE,8.1,-,N/A,,Unknown,110,2013-01-22 00:48:00
6:48 PM,12.0,7.0,80,30.25,-9999.0,ESE,6.9,-,N/A,,Unknown,120,2013-01-22 01:48:00
7:48 PM,12.0,7.0,80,30.24,-9999.0,ESE,8.1,-,N/A,,Unknown,120,2013-01-22 02:48:00
8:48 PM,12.9,7.0,77,30.24,-9999.0,East,8.1,-,N/A,,Unknown,100,2013-01-22 03:48:00
9:48 PM,12.0,7.0,80,30.22,-9999.0,SE,5.8,-,N/A,,Unknown,130,2013-01-22 04:48:00
10:48 PM,12.9,8.1,81,30.22,-9999.0,East,5.8,-,N/A,,Unknown,80,2013-01-22 05:48:00
11:48 PM,12.0,8.1,84,30.20,-9999.0,ESE,4.6,-,N/A,,Unknown,110,2013-01-22 06:48:00